Location: Anare
(10.6236°N, 66.6506°W)
Time: 08:08:51
(UTC+00:00)

YAOGAN 1 - Visible Passes

Search period start: 18 July 2024 00:00
Search period end: 28 July 2024 00:00
Orbit: 611 x 613 km, 97.8° (Epoch: 17 July)

Date Brightness Start Highest point End Pass type
(mag) Time Alt. Az. Time Alt. Az. Time Alt. Az.
18 Jul 4.3 00:02:11 10° SSW 00:05:58 31° W 00:09:45 10° NW visible
19 Jul 5.1 00:17:46 10° SW 00:20:51 19° W 00:23:56 10° NW visible
20 Jul 5.5 00:34:08 10° WSW 00:35:44 12° W 00:37:22 10° WNW visible
20 Jul 2.9 23:10:43 10° SSE 23:14:48 45° ENE 23:18:53 10° N visible
21 Jul 2.5 23:25:23 10° SSE 23:29:39 76° ENE 23:33:54 10° N visible
22 Jul 2.9 23:40:15 10° S 23:44:29 64° W 23:48:44 10° NNW visible
23 Jul 3.9 23:55:22 10° S 23:59:20 38° W 00:03:19 10° NNW visible
25 Jul 4.8 00:10:46 10° SSW 00:14:12 24° W 00:17:39 10° NW visible
26 Jul 5.3 00:26:38 10° SW 00:29:04 15° W 00:31:29 10° WNW visible
27 Jul 2.6 23:18:43 10° SSE 23:22:56 60° ENE 23:27:08 10° N visible
